Location: Carnoy
(49.9849°N, 2.7558°E)
Time: 10:24:41
(UTC+00:00)

Cosmos 1939 Rocket - Pass Details

Date: 24 January 2020
Orbit: 534 x 583 km, 97.4° (Epoch: 16 February)

Event Time Altitude Azimuth Distance (km) Brightness Sun altitude
Rises 18:25:50 0° 167° (SSE) 2,694 6.3 -18.5°
Reaches altitude 10° 18:27:55 10° 168° (SSE) 1,813 5.4 -18.8°
Maximum altitude 18:31:51 82° 256° (WSW) 564 2.8 -19.5°
Drops below altitude 10° 18:35:52 10° 345° (NNW) 1,857 5.6 -20.1°
Sets 18:38:02 0° 347° (NNW) 2,767 6.5 -20.5°
